�������l�o���
Date,Time,MP-1(��Sv/h),MP-2(��Sv/h),MP-3(��Sv/h),MP-4(��Sv/h),MP-5(��Sv/h),MP-6(��Sv/h),MP-7(��Sv/h),����,����(m/s),���J
2021/12/03,00:00,0.157,0.142,0.223,0.220,0.223,0.122,0.078,�쐼,5.4,�L
2021/12/03,00:10,0.156,0.143,0.223,0.219,0.223,0.122,0.079,�쐼,5.3,��
2021/12/03,00:20,0.157,0.143,0.224,0.220,0.224,0.122,0.078,�쐼,4.7,��
2021/12/03,00:30,0.157,0.143,0.222,0.219,0.224,0.123,0.078,��쐼,5.8,��
2021/12/03,00:40,0.156,0.143,0.224,0.219,0.225,0.122,0.078,��쐼,4.8,��
2021/12/03,00:50,0.157,0.143,0.223,0.219,0.224,0.122,0.078,��쐼,4.9,��
2021/12/03,01:00,0.157,0.143,0.224,0.219,0.223,0.121,0.078,��쐼,5.3,��
2021/12/03,01:10,0.156,0.143,0.224,0.219,0.224,0.122,0.078,��쐼,4.7,��
2021/12/03,01:20,0.156,0.142,0.224,0.219,0.225,0.122,0.078,��쐼,5.1,��
2021/12/03,01:30,0.156,0.143,0.223,0.218,0.224,0.122,0.078,��쐼,5.8,��
2021/12/03,01:40,0.156,0.142,0.224,0.220,0.225,0.122,0.078,��쐼,5.4,��
2021/12/03,01:50,0.155,0.143,0.223,0.219,0.225,0.122,0.078,��쐼,5.1,��
2021/12/03,02:00,0.156,0.142,0.223,0.219,0.223,0.121,0.078,��쐼,5.0,��
2021/12/03,02:10,0.157,0.142,0.223,0.219,0.224,0.122,0.078,��,5.5,��
2021/12/03,02:20,0.156,0.142,0.223,0.219,0.225,0.122,0.078,��쐼,5.8,��
2021/12/03,02:30,0.156,0.142,0.223,0.218,0.224,0.121,0.077,��쐼,6.0,��
2021/12/03,02:40,0.157,0.142,0.224,0.220,0.224,0.121,0.078,��,6.3,��
2021/12/03,02:50,0.156,0.142,0.223,0.220,0.224,0.122,0.078,��,6.0,��
2021/12/03,03:00,0.156,0.143,0.223,0.218,0.224,0.122,0.079,��,6.2,��
2021/12/03,03:10,0.157,0.143,0.223,0.219,0.224,0.122,0.079,��,5.9,��
2021/12/03,03:20,0.158,0.142,0.222,0.220,0.223,0.122,0.078,��,6.8,��
2021/12/03,03:30,0.157,0.142,0.224,0.220,0.224,0.122,0.078,��,5.9,��
2021/12/03,03:40,0.157,0.143,0.222,0.219,0.223,0.122,0.078,��,4.7,��
2021/12/03,03:50,0.157,0.142,0.223,0.220,0.224,0.122,0.077,��,3.5,��
2021/12/03,04:00,0.156,0.141,0.222,0.220,0.224,0.122,0.078,��쐼,4.5,��
2021/12/03,04:10,0.156,0.143,0.224,0.219,0.224,0.123,0.078,��쐼,3.2,��
2021/12/03,04:20,0.157,0.143,0.223,0.220,0.224,0.122,0.078,��쐼,3.7,��
2021/12/03,04:30,0.156,0.142,0.223,0.221,0.223,0.122,0.078,��쐼,4.0,��
2021/12/03,04:40,0.155,0.143,0.223,0.219,0.225,0.122,0.079,��,3.9,��
2021/12/03,04:50,0.157,0.143,0.224,0.219,0.223,0.122,0.077,��쐼,4.9,��
2021/12/03,05:00,0.157,0.142,0.222,0.219,0.223,0.122,0.078,��,3.9,��
2021/12/03,05:10,0.156,0.143,0.223,0.219,0.225,0.123,0.078,��,3.1,��
2021/12/03,05:20,0.156,0.143,0.224,0.219,0.225,0.122,0.078,��,2.9,��
2021/12/03,05:30,0.158,0.143,0.224,0.219,0.224,0.122,0.078,��,2.9,��
2021/12/03,05:40,0.157,0.143,0.223,0.220,0.224,0.121,0.078,��,3.1,��
2021/12/03,05:50,0.156,0.143,0.223,0.219,0.225,0.122,0.078,��,3.5,��
2021/12/03,06:00,0.156,0.143,0.224,0.218,0.224,0.122,0.077,��쐼,4.1,��
2021/12/03,06:10,0.157,0.143,0.224,0.219,0.225,0.121,0.078,��,3.7,��
2021/12/03,06:20,0.156,0.142,0.224,0.220,0.225,0.122,0.078,��,4.7,��
2021/12/03,06:30,0.155,0.143,0.224,0.219,0.224,0.123,0.078,��,4.0,��
2021/12/03,06:40,0.156,0.143,0.224,0.219,0.225,0.122,0.079,��,3.7,��
2021/12/03,06:50,0.157,0.143,0.225,0.219,0.224,0.123,0.079,��,3.5,�L
2021/12/03,07:00,0.157,0.143,0.224,0.219,0.224,0.122,0.078,��,3.1,�L
2021/12/03,07:10,0.157,0.143,0.224,0.220,0.223,0.122,0.078,��,2.0,�L
2021/12/03,07:20,0.157,0.144,0.224,0.218,0.224,0.123,0.078,��,1.5,��
2021/12/03,07:30,0.157,0.143,0.224,0.219,0.224,0.122,0.077,��,1.2,��
2021/12/03,07:40,0.157,0.142,0.225,0.219,0.224,0.123,0.078,-,CALM,��
2021/12/03,07:50,0.157,0.144,0.224,0.220,0.224,0.122,0.078,���쓌,0.6,��
2021/12/03,08:00,0.159,0.143,0.223,0.218,0.224,0.122,0.078,-,CALM,��
2021/12/03,08:10,0.157,0.144,0.224,0.221,0.223,0.123,0.078,-,CALM,��
2021/12/03,08:20,0.156,0.143,0.225,0.219,0.224,0.123,0.078,��,1.0,��
2021/12/03,08:30,0.158,0.144,0.224,0.218,0.224,0.123,0.077,�k��,1.1,��
2021/12/03,08:40,0.157,0.143,0.223,0.219,0.225,0.122,0.079,�k�k��,1.3,��
2021/12/03,08:50,0.157,0.143,0.223,0.218,0.225,0.121,0.079,�k�k��,2.3,��
2021/12/03,09:00,0.157,0.143,0.225,0.220,0.224,0.121,0.079,�k�k��,1.5,��
2021/12/03,09:10,0.157,0.143,0.223,0.218,0.226,0.123,0.078,�k,1.7,��
2021/12/03,09:20,0.157,0.143,0.224,0.219,0.224,0.122,0.079,�k,2.2,��
2021/12/03,09:30,0.157,0.142,0.224,0.221,0.225,0.122,0.078,�k�k��,1.2,��
2021/12/03,09:40,0.158,0.143,0.224,0.218,0.224,0.122,0.078,�k,2.1,��
2021/12/03,09:50,0.156,0.143,0.224,0.220,0.224,0.122,0.079,�k,2.4,��
2021/12/03,10:00,0.157,0.144,0.224,0.219,0.225,0.122,0.079,�k,1.1,��
2021/12/03,10:10,0.156,0.144,0.223,0.221,0.224,0.123,0.078,�k�k��,1.4,��
2021/12/03,10:20,0.157,0.143,0.224,0.218,0.227,0.123,0.079,�k�k��,2.0,��
2021/12/03,10:30,0.158,0.143,0.224,0.220,0.224,0.123,0.078,�k,2.0,�L
2021/12/03,10:40,0.157,0.143,0.225,0.219,0.226,0.123,0.079,�k�k��,1.9,�L
2021/12/03,10:50,0.157,0.144,0.225,0.220,0.225,0.123,0.078,�k,1.0,�L
2021/12/03,11:00,0.158,0.143,0.225,0.222,0.226,0.123,0.079,�k�k��,1.3,��
2021/12/03,11:10,0.157,0.143,0.226,0.219,0.225,0.122,0.079,�k,1.2,��
2021/12/03,11:20,0.158,0.143,0.224,0.222,0.225,0.123,0.079,�k�k��,0.8,��
2021/12/03,11:30,0.157,0.143,0.223,0.220,0.227,0.123,0.078,�k��,1.1,��
2021/12/03,11:40,0.158,0.144,0.225,0.220,0.225,0.123,0.077,���k��,0.8,��
2021/12/03,11:50,0.158,0.143,0.224,0.220,0.225,0.123,0.079,���쐼,0.6,��
2021/12/03,12:00,0.158,0.143,0.224,0.219,0.224,0.123,0.079,��쓌,0.8,��
2021/12/03,12:10,0.157,0.144,0.224,0.220,0.226,0.123,0.079,�쓌,1.2,��
2021/12/03,12:20,0.157,0.144,0.225,0.219,0.224,0.122,0.078,���쓌,0.7,��
2021/12/03,12:30,0.157,0.142,0.223,0.220,0.226,0.123,0.078,���쓌,1.0,��
2021/12/03,12:40,0.157,0.144,0.224,0.218,0.224,0.122,0.078,���쓌,1.4,��
2021/12/03,12:50,0.157,0.144,0.224,0.221,0.225,0.123,0.079,���쓌,2.2,��
2021/12/03,13:00,0.157,0.143,0.224,0.219,0.225,0.122,0.079,��,1.7,��
2021/12/03,13:10,0.156,0.142,0.224,0.220,0.226,0.123,0.078,���k��,1.8,��
2021/12/03,13:20,0.157,0.143,0.224,0.218,0.224,0.122,0.078,�k��,0.9,��
2021/12/03,13:30,0.155,0.143,0.225,0.220,0.224,0.122,0.078,��,1.6,��
2021/12/03,13:40,0.158,0.142,0.222,0.219,0.225,0.122,0.077,�k��,2.5,��
2021/12/03,13:50,0.157,0.142,0.223,0.218,0.223,0.122,0.078,�k��,1.9,��
2021/12/03,14:00,0.157,0.142,0.224,0.220,0.224,0.123,0.077,���쓌,1.4,��
2021/12/03,14:10,0.158,0.142,0.225,0.218,0.223,0.123,0.078,��,2.5,��
2021/12/03,14:20,0.157,0.142,0.224,0.220,0.224,0.122,0.077,���쓌,2.9,��
2021/12/03,14:30,0.157,0.143,0.224,0.218,0.224,0.122,0.079,��,2.6,��
2021/12/03,14:40,0.156,0.141,0.223,0.220,0.225,0.121,0.078,�k��,1.7,��
2021/12/03,14:50,0.156,0.143,0.223,0.217,0.225,0.122,0.078,�k�k��,1.6,��
2021/12/03,15:00,0.157,0.143,0.224,0.220,0.227,0.122,0.079,�k�k��,3.2,��
2021/12/03,15:10,0.157,0.144,0.224,0.218,0.225,0.123,0.078,�k�k��,2.0,��
2021/12/03,15:20,0.157,0.143,0.224,0.220,0.225,0.123,0.079,�k,3.3,��
2021/12/03,15:30,0.156,0.143,0.224,0.219,0.225,0.122,0.078,�k�k��,3.4,��
2021/12/03,15:40,0.156,0.144,0.223,0.219,0.225,0.123,0.079,�k�k��,2.9,��
2021/12/03,15:50,0.157,0.143,0.224,0.220,0.225,0.122,0.078,�k,2.0,��
2021/12/03,16:00,0.156,0.142,0.224,0.219,0.225,0.122,0.078,�k,2.0,��
2021/12/03,16:10,0.157,0.143,0.224,0.220,0.225,0.122,0.078,�k,1.9,��
2021/12/03,16:20,0.157,0.143,0.223,0.220,0.225,0.122,0.078,�k,1.7,��
2021/12/03,16:30,0.157,0.143,0.225,0.219,0.225,0.123,0.078,�k,1.9,��
2021/12/03,16:40,0.157,0.144,0.224,0.220,0.226,0.122,0.078,�k�k��,3.1,��
2021/12/03,16:50,0.157,0.144,0.223,0.220,0.225,0.123,0.078,�k�k��,2.6,��
2021/12/03,17:00,0.156,0.143,0.225,0.220,0.227,0.123,0.078,�k�k��,3.5,��
2021/12/03,17:10,0.157,0.145,0.224,0.220,0.224,0.123,0.078,�k�k��,3.7,��
2021/12/03,17:20,0.157,0.143,0.224,0.221,0.225,0.123,0.078,�k��,4.3,��
2021/12/03,17:30,0.157,0.143,0.224,0.220,0.226,0.123,0.079,�k��,3.7,��
2021/12/03,17:40,0.158,0.143,0.225,0.220,0.225,0.123,0.078,���k��,3.8,��
2021/12/03,17:50,0.158,0.142,0.224,0.220,0.225,0.123,0.077,���k��,4.5,��
2021/12/03,18:00,0.157,0.144,0.224,0.220,0.224,0.123,0.078,���k��,4.8,��
2021/12/03,18:10,0.157,0.145,0.223,0.219,0.224,0.122,0.079,���k��,5.1,��
2021/12/03,18:20,0.156,0.142,0.223,0.220,0.224,0.122,0.079,���k��,5.5,��
2021/12/03,18:30,0.158,0.142,0.224,0.220,0.224,0.123,0.078,�k��,4.9,��
2021/12/03,18:40,0.156,0.144,0.224,0.220,0.224,0.122,0.078,�k��,4.1,��
2021/12/03,18:50,0.157,0.143,0.225,0.219,0.225,0.122,0.078,���k��,4.9,��
2021/12/03,19:00,0.158,0.143,0.224,0.219,0.225,0.123,0.078,���k��,5.2,��
2021/12/03,19:10,0.157,0.143,0.226,0.220,0.225,0.123,0.079,���k��,4.5,��
2021/12/03,19:20,0.157,0.144,0.223,0.219,0.223,0.122,0.078,�k��,4.3,��
2021/12/03,19:30,0.157,0.144,0.224,0.219,0.224,0.122,0.078,�k��,5.2,��
2021/12/03,19:40,0.157,0.143,0.224,0.221,0.224,0.122,0.078,���k��,5.9,��
2021/12/03,19:50,0.157,0.143,0.224,0.220,0.224,0.122,0.078,���k��,5.8,��
2021/12/03,20:00,0.157,0.144,0.224,0.219,0.225,0.122,0.079,�k��,6.2,��
2021/12/03,20:10,0.157,0.144,0.223,0.219,0.224,0.122,0.078,�k��,3.6,��
2021/12/03,20:20,0.156,0.143,0.224,0.220,0.225,0.122,0.078,�k�k��,1.9,��
2021/12/03,20:30,0.157,0.143,0.224,0.221,0.224,0.122,0.078,�k,2.5,��
2021/12/03,20:40,0.157,0.144,0.224,0.219,0.226,0.122,0.078,�k,2.6,��
2021/12/03,20:50,0.157,0.143,0.223,0.219,0.225,0.122,0.079,�k�k��,2.3,��
2021/12/03,21:00,0.158,0.143,0.224,0.219,0.223,0.123,0.079,�k,0.7,��
2021/12/03,21:10,0.157,0.144,0.224,0.220,0.224,0.123,0.079,���쐼,0.8,��
2021/12/03,21:20,0.157,0.142,0.225,0.219,0.225,0.122,0.078,-,CALM,��
2021/12/03,21:30,0.157,0.143,0.224,0.220,0.225,0.122,0.078,�k��,1.4,��
2021/12/03,21:40,0.157,0.143,0.224,0.220,0.225,0.123,0.078,���k��,1.4,��
2021/12/03,21:50,0.158,0.143,0.224,0.220,0.225,0.123,0.078,���k��,1.3,��
2021/12/03,22:00,0.157,0.143,0.223,0.220,0.224,0.123,0.078,�k��,0.6,��
2021/12/03,22:10,0.158,0.142,0.225,0.219,0.224,0.122,0.079,-,CALM,��
2021/12/03,22:20,0.157,0.144,0.224,0.220,0.225,0.123,0.078,-,CALM,��
2021/12/03,22:30,0.156,0.144,0.225,0.219,0.225,0.122,0.078,���쐼,1.2,��
2021/12/03,22:40,0.157,0.144,0.225,0.219,0.225,0.121,0.078,���k��,1.9,��
2021/12/03,22:50,0.158,0.144,0.225,0.220,0.226,0.123,0.078,��,2.9,��
2021/12/03,23:00,0.157,0.144,0.224,0.219,0.225,0.123,0.079,��,2.3,��
2021/12/03,23:10,0.157,0.143,0.223,0.220,0.225,0.123,0.079,��,0.8,��
2021/12/03,23:20,0.156,0.143,0.224,0.220,0.224,0.122,0.078,�쐼,0.6,��
2021/12/03,23:30,0.157,0.143,0.225,0.219,0.225,0.123,0.078,-,CALM,��
2021/12/03,23:40,0.158,0.143,0.224,0.219,0.224,0.123,0.078,���k��,0.8,��
2021/12/03,23:50,0.157,0.143,0.224,0.220,0.224,0.123,0.078,���k��,1.0,��
